This is the latest recevied weather packets stored in our database for station/object BARLOW-WX. If no packets are shown the sender has not sent any weather packets the latest 10 day(s).
| Time | Temp. | Humidity | Pressure | Rain* | Wind** | Luminosity | Snow |
|---|---|---|---|---|---|---|---|
| 1777381304 | 10° C | 90% | 979.7 hPa | 0 mm | - | - | - |
| 1777380374 | 10° C | 86% | 980.2 hPa | 0 mm | - | - | - |
| 1777379494 | 10° C | 86% | 979.2 hPa | 0 mm | - | - | - |
| 1777378574 | 10.56° C | 86% | 979.2 hPa | 0 mm | - | - | - |
| 1777377718 | 10.56° C | 86% | 979.2 hPa | 0 mm | - | - | - |
| 1777376774 | 11.11° C | 90% | 978.2 hPa | 0 mm | - | - | - |
| 1777375897 | 11.67° C | 93% | 978.6 hPa | 0 mm | - | - | - |
| 1777374980 | 11.67° C | 93% | 978.6 hPa | 0.25 mm | - | - | - |
| 1777374107 | 12.22° C | 93% | 978.6 hPa | 0.25 mm | - | - | - |
| 1777373179 | 12.22° C | 89% | 978.6 hPa | 0 mm | - | - | - |
| 1777372295 | 12.78° C | 95% | 977.9 hPa | 0 mm | - | - | - |
| 1777371378 | 13.33° C | 95% | 977.9 hPa | 0.51 mm | - | - | - |
| 1777370511 | 13.89° C | 95% | 977.9 hPa | 0.51 mm | - | - | - |
| 1777369579 | 14.44° C | 92% | 976.4 hPa | 0 mm | - | - | - |
| 1777368689 | 15° C | 92% | 976.5 hPa | 0 mm | - | - | - |
| 1777367779 | 15° C | 92% | 976.5 hPa | 0 mm | - | - | - |
| 1777366899 | 15° C | 92% | 976.5 hPa | 0 mm | - | - | - |
| 1777365978 | 15° C | 88% | 975.8 hPa | 0 mm | - | - | - |
| 1777365094 | 15.56° C | 90% | 975.6 hPa | 0 mm | - | - | - |
| 1777364174 | 15° C | 90% | 975.6 hPa | 0 mm | - | - | - |
| 1777363305 | 15° C | 90% | 975.6 hPa | 0 mm | - | - | - |
| 1777362379 | 15° C | 85% | 975.9 hPa | 0 mm | - | - | - |
| 1777361493 | 15° C | 85% | 975.9 hPa | 0 mm | - | - | - |
| 1777360578 | 15° C | 85% | 975.9 hPa | 0 mm | - | - | - |
| 1777359709 | 15° C | 85% | 975.9 hPa | 0 mm | - | - | - |
* Rain latest hour (hover to see other rain measurements)
** Current wind speed in m/s (hover to see current wind gust speed)